When you browse on this site, cookies collect data to enhance your experience and personalize the content and advertising you see.
Visit our Privacy Policy to learn more. By continuing to use the site, you agree to this use of cookies and data.
  • In Lithuania
  • List of Countries
  • For 7 days
  • Water Temperature
  • Weather Map
  • Weather Widgets
  • user-avatar
    Login

    Hourly Weather Sokolov

    Today, 20 September, Friday

    Time Temperature Precipitation Wind Pressure Humidity
    00:00 +6°C° 0 mm 1 mps 735 mmHg 90%
    01:00 +5°C° 0 mm 0 mps 735 mmHg 91%
    02:00 +5°C° 0 mm 0 mps 735 mmHg 91%
    03:00 +5°C° 0 mm 0 mps 734 mmHg 91%
    04:00 +4°C° 0 mm 0 mps 734 mmHg 92%
    05:00 +5°C° 0 mm 0 mps 734 mmHg 90%
    06:00 +6°C° 0 mm 0 mps 735 mmHg 88%
    07:00 +6°C° 0 mm 0 mps 735 mmHg 87%
    08:00 +8°C° 0 mm 0 mps 735 mmHg 77%
    09:00 +11°C° 0 mm 0 mps 735 mmHg 67%
    10:00 +13°C° 0 mm 0 mps 735 mmHg 58%
    11:00 +14°C° 0 mm 0 mps 735 mmHg 53%
    12:00 +16°C° 0 mm 1 mps 734 mmHg 49%
    13:00 +18°C° 0 mm 1 mps 734 mmHg 45%
    14:00 +18°C° 0 mm 1 mps 734 mmHg 47%
    15:00 +16°C° 0 mm 1 mps 733 mmHg 49%
    16:00 +16°C° 0 mm 1 mps 733 mmHg 51%
    17:00 +14°C° 0 mm 1 mps 733 mmHg 60%
    18:00 +12°C° 0 mm 1 mps 732 mmHg 69%
    19:00 +10°C° 0 mm 1 mps 732 mmHg 78%
    20:00 +9°C° 0 mm 1 mps 732 mmHg 79%
    21:00 +9°C° 0 mm 1 mps 732 mmHg 80%
    22:00 +9°C° 0 mm 1 mps 732 mmHg 82%
    23:00 +8°C° 0 mm 1 mps 732 mmHg 83%

    Tomorrow, 21 September, Saturday

    Time Temperature Precipitation Wind Pressure Humidity
    00:00 +8°C° 0 mm 1 mps 732 mmHg 84%
    01:00 +8°C° 0 mm 1 mps 732 mmHg 85%
    02:00 +8°C° 0 mm 1 mps 732 mmHg 85%
    03:00 +7°C° 0 mm 1 mps 731 mmHg 85%
    04:00 +7°C° 0 mm 1 mps 731 mmHg 85%
    05:00 +8°C° 0 mm 1 mps 731 mmHg 83%
    06:00 +8°C° 0 mm 1 mps 731 mmHg 81%
    07:00 +8°C° 0 mm 1 mps 731 mmHg 79%
    08:00 +10°C° 0 mm 2 mps 731 mmHg 71%
    09:00 +13°C° 0 mm 2 mps 731 mmHg 63%
    10:00 +14°C° 0 mm 3 mps 731 mmHg 54%
    11:00 +16°C° 0 mm 3 mps 730 mmHg 53%
    12:00 +17°C° 0 mm 3 mps 730 mmHg 51%
    13:00 +18°C° 0 mm 3 mps 730 mmHg 49%
    14:00 +18°C° 0 mm 3 mps 729 mmHg 50%
    15:00 +18°C° 0 mm 3 mps 729 mmHg 51%
    16:00 +18°C° 0 mm 3 mps 728 mmHg 53%
    17:00 +16°C° 0 mm 3 mps 728 mmHg 60%
    18:00 +13°C° 0 mm 3 mps 727 mmHg 67%
    19:00 +11°C° 0 mm 3 mps 727 mmHg 74%
    20:00 +11°C° 0 mm 3 mps 727 mmHg 74%
    21:00 +10°C° 0 mm 3 mps 727 mmHg 73%
    22:00 +10°C° 0 mm 3 mps 727 mmHg 73%
    23:00 +9°C° 0 mm 3 mps 726 mmHg 73%

    Day after tomorrow, 22 September, Sunday

    Time Temperature Precipitation Wind Pressure Humidity
    00:00 +9°C° 0 mm 3 mps 726 mmHg 73%
    01:00 +8°C° 0 mm 3 mps 726 mmHg 73%
    02:00 +8°C° 0 mm 2 mps 725 mmHg 74%
    03:00 +8°C° 0 mm 2 mps 725 mmHg 76%
    04:00 +7°C° 0 mm 2 mps 725 mmHg 78%
    05:00 +7°C° 0 mm 2 mps 725 mmHg 77%
    06:00 +7°C° 0 mm 2 mps 725 mmHg 77%
    07:00 +7°C° 0 mm 2 mps 724 mmHg 76%
    08:00 +10°C° 0 mm 2 mps 724 mmHg 70%
    09:00 +13°C° 0 mm 2 mps 724 mmHg 64%
    10:00 +15°C° 0 mm 2 mps 724 mmHg 57%
    11:00 +16°C° 0 mm 2 mps 724 mmHg 55%
    12:00 +17°C° 0 mm 3 mps 724 mmHg 53%
    13:00 +18°C° 0 mm 3 mps 724 mmHg 51%
    14:00 +18°C° 0 mm 2 mps 723 mmHg 53%
    15:00 +18°C° 0 mm 2 mps 723 mmHg 54%
    16:00 +18°C° 0 mm 2 mps 722 mmHg 56%
    17:00 +17°C° 0 mm 2 mps 722 mmHg 61%
    18:00 +15°C° 0 mm 2 mps 722 mmHg 66%
    19:00 +14°C° 0 mm 2 mps 722 mmHg 71%
    20:00 +13°C° 0 mm 2 mps 721 mmHg 73%
    21:00 +13°C° 0 mm 1 mps 721 mmHg 74%
    22:00 +12°C° 0 mm 1 mps 721 mmHg 76%
    23:00 +12°C° 0 mm 1 mps 721 mmHg 75%

    23 September, Monday

    Time Temperature Precipitation Wind Pressure Humidity
    00:00 +12°C° 0 mm 1 mps 721 mmHg 74%
    01:00 +12°C° 0 mm 1 mps 721 mmHg 74%
    02:00 +12°C° 0 mm 1 mps 721 mmHg 73%
    03:00 +12°C° 0 mm 1 mps 721 mmHg 72%
    04:00 +13°C° 0 mm 1 mps 721 mmHg 71%
    05:00 +13°C° 0 mm 1 mps 721 mmHg 72%
    06:00 +13°C° 0 mm 1 mps 721 mmHg 73%
    07:00 +13°C° 0 mm 1 mps 721 mmHg 74%
    08:00 +14°C° 0 mm 1 mps 721 mmHg 75%
    09:00 +15°C° 0 mm 2 mps 721 mmHg 77%
    10:00 +16°C° 0 mm 2 mps 722 mmHg 78%
    11:00 +16°C° 0 mm 2 mps 722 mmHg 81%
    12:00 +16°C° 0 mm 2 mps 722 mmHg 83%
    13:00 +16°C° 0 mm 3 mps 722 mmHg 85%
    14:00 +16°C° 0.1 mm 2 mps 722 mmHg 87%
    15:00 +15°C° 0.1 mm 2 mps 722 mmHg 89%
    16:00 +15°C° 0.1 mm 2 mps 722 mmHg 91%
    17:00 +15°C° 0.3 mm 2 mps 722 mmHg 93%
    18:00 +14°C° 0.3 mm 2 mps 722 mmHg 95%
    19:00 +14°C° 0.3 mm 2 mps 723 mmHg 96%
    20:00 +14°C° 0.2 mm 2 mps 723 mmHg 96%
    21:00 +14°C° 0.2 mm 2 mps 723 mmHg 96%
    22:00 +14°C° 0.2 mm 2 mps 724 mmHg 96%
    23:00 +14°C° 0.1 mm 2 mps 724 mmHg 96%

    24 September, Tuesday

    Time Temperature Precipitation Wind Pressure Humidity
    00:00 +13°C° 0.1 mm 2 mps 724 mmHg 96%
    01:00 +12°C° 0.1 mm 3 mps 724 mmHg 96%
    02:00 +12°C° 0 mm 3 mps 724 mmHg 96%
    03:00 +12°C° 0 mm 3 mps 724 mmHg 96%
    04:00 +12°C° 0 mm 3 mps 724 mmHg 95%
    05:00 +13°C° 0 mm 2 mps 724 mmHg 96%
    06:00 +13°C° 0 mm 2 mps 724 mmHg 96%
    07:00 +13°C° 0 mm 2 mps 724 mmHg 96%
    08:00 +14°C° 0.1 mm 2 mps 725 mmHg 95%
    09:00 +14°C° 0.1 mm 2 mps 725 mmHg 94%
    10:00 +14°C° 0.1 mm 2 mps 725 mmHg 93%
    11:00 +15°C° 0 mm 2 mps 725 mmHg 89%
    12:00 +16°C° 0 mm 1 mps 725 mmHg 86%
    13:00 +16°C° 0 mm 1 mps 725 mmHg 82%
    14:00 +18°C° 0 mm 1 mps 724 mmHg 78%
    15:00 +17°C° 0 mm 2 mps 724 mmHg 74%
    16:00 +18°C° 0 mm 2 mps 724 mmHg 70%
    17:00 +16°C° 0 mm 2 mps 723 mmHg 75%
    18:00 +15°C° 0 mm 1 mps 723 mmHg 81%
    19:00 +13°C° 0 mm 1 mps 723 mmHg 87%
    20:00 +13°C° 0 mm 1 mps 723 mmHg 87%
    21:00 +14°C° 0 mm 2 mps 723 mmHg 88%
    22:00 +14°C° 0 mm 2 mps 723 mmHg 88%
    23:00 +14°C° 0.1 mm 2 mps 722 mmHg 89%

    25 September, Wednesday

    Time Temperature Precipitation Wind Pressure Humidity
    00:00 +14°C° 0.1 mm 2 mps 722 mmHg 90%
    01:00 +14°C° 0.1 mm 2 mps 722 mmHg 92%
    02:00 +13°C° 0 mm 2 mps 721 mmHg 93%
    03:00 +13°C° 0 mm 2 mps 721 mmHg 94%
    04:00 +12°C° 0 mm 2 mps 720 mmHg 96%
    05:00 +12°C° 0 mm 2 mps 720 mmHg 95%
    06:00 +12°C° 0 mm 2 mps 720 mmHg 95%
    07:00 +13°C° 0 mm 2 mps 720 mmHg 94%
    08:00 +12°C° 0 mm 3 mps 720 mmHg 93%
    09:00 +13°C° 0 mm 3 mps 720 mmHg 92%
    10:00 +13°C° 0 mm 3 mps 721 mmHg 91%
    11:00 +14°C° 0.2 mm 3 mps 721 mmHg 89%
    12:00 +14°C° 0.2 mm 4 mps 721 mmHg 87%
    13:00 +14°C° 0.2 mm 4 mps 721 mmHg 84%
    14:00 +14°C° 0.1 mm 4 mps 721 mmHg 82%
    15:00 +15°C° 0.1 mm 4 mps 720 mmHg 79%
    16:00 +15°C° 0.1 mm 4 mps 720 mmHg 77%
    17:00 +13°C° 0 mm 3 mps 720 mmHg 82%
    18:00 +12°C° 0 mm 3 mps 720 mmHg 88%
    19:00 +12°C° 0 mm 2 mps 720 mmHg 93%
    20:00 +12°C° 0 mm 2 mps 720 mmHg 94%
    21:00 +11°C° 0 mm 3 mps 721 mmHg 95%
    22:00 +10°C° 0 mm 3 mps 721 mmHg 96%
    23:00 +10°C° 0 mm 3 mps 720 mmHg 96%
    Show more